Location: Bassano
(45.7667°N, 11.7333°E)
Time: 04:39:41
(UTC+00:00)

N. Korean satellite - Visible Passes

Search period start: 26 February 2021 00:00
Search period end: 08 March 2021 00:00
Orbit: 451 x 503 km, 97.2° (Epoch: 25 February)

Date Brightness Start Highest point End Pass type
(mag) Time Alt. Az. Time Alt. Az. Time Alt. Az.
26 Feb 7.1 04:32:26 10° NNE 04:35:53 60° E 04:39:22 10° S visible
27 Feb 8.7 04:06:02 10° NE 04:09:05 27° E 04:12:09 10° SSE visible
28 Feb 9.8 03:40:18 10° ENE 03:42:10 14° E 03:44:02 10° ESE visible
28 Feb 6.9 05:12:21 10° N 05:15:40 40° WNW 05:19:00 10° SW visible
01 Mar 6.5 04:45:27 10° NNE 04:48:59 90° ESE 04:52:33 10° SSW visible
02 Mar 8.0 04:18:52 10° NNE 04:22:13 40° E 04:25:35 10° S visible
03 Mar 9.4 03:52:42 10° NE 03:55:20 19° E 03:57:59 10° SE visible
04 Mar 6.5 04:58:30 10° N 05:02:01 61° WNW 05:05:32 10° SSW visible
05 Mar 7.2 04:31:44 10° NNE 04:35:15 60° E 04:38:49 10° S visible
06 Mar 8.8 04:05:18 10° NE 04:08:25 28° E 04:11:32 10° SSE visible
07 Mar 9.8 03:39:30 10° ENE 03:41:28 14° E 03:43:25 10° SE visible
07 Mar 7.0 05:11:34 10° N 05:14:57 41° WNW 05:18:22 10° SW visible
